User: anonymous   Login
Location: Unspecified
(0.0000°N, 0.0000°E)
Time: 22:14:18
(UTC+00:00)
Language:

USA 276 - Orbit

View from above orbital plane
View from above orbital plane
View from above satellite
View from above satellite

Ground track
Ground track

The orbit data is extracted from the following two-line orbital elements,

1 42689U 17022A   19111.42407834 0.00006000  00000-0  79555-4 0    00
2 42689  49.9809 145.7394 0009000 237.3476 122.6522 15.57503729    08
Epoch (UTC): 21 April 2019 10:10:40
Eccentricity: 0.0009000
inclination: 49.9809°
perigee height: 389 km
apogee height: 401 km
right ascension of ascending node: 145.7394°
argument of perigee: 237.3476°
revolutions per day: 15.57503729
mean anomaly at epoch: 122.6522°
orbit number at epoch: 0

The dashed part of the orbit path shows where the satellite is in the earth's shadow,  

DLR